Regional Weather Roundup
Issued by NWS

Home | Current Version | Previous Version | Text Only | Print | Product List | Glossary Off
Versions: 1 2 3 4 5 6 7 8 9 10 11 12 13 14 15 16 17 18 19 20 21 22 23 24 25 26 27 28 29 30 31 32 33 34 35 36 37 38 39 40 41 42 43 44 45 46 47 48 49 50

000
ASUS44 KMEG 190610
RWRTN
TENNESSEE HOURLY STATE WEATHER ROUNDUP
NATIONAL WEATHER SERVICE MEMPHIS TN
100 AM CDT THU OCT 19 2017

TNZ002-004-019-021-049-052-054-088>092-190700-
WEST TENNESSEE

CITY           SKY/WX    TMP DP  RH WIND       PRES   REMARKS
MEMPHIS INTL   CLEAR     59  47  64 S6        30.19R
NWS MEMPHIS      N/A     53 N/A N/A MISG        N/A
JACKSON        CLEAR     46  45  96 CALM      30.22R
SOMERVILLE     CLEAR     50  48  93 CALM      30.19S
COVINGTON      CLEAR     46  46 100 SE7       30.20F
UNION CITY     CLEAR     50  45  81 CALM      30.19S
BOLIVAR        CLEAR     45  43  93 CALM      30.20S
PARIS          CLEAR     50  46  87 CALM      30.20S
HUNTINGDON     CLEAR     46  46 100 CALM      30.20S
LEXINGTON      CLEAR     45  45 100 CALM      30.21S
SELMER         CLEAR     55  46  71 S8        30.20S
SAVANNAH       CLEAR     46  45  93 CALM      30.21S
$$

TNZ008-025-027-028-033-062-065-066-190700-
NORTH MIDDLE TENNESSEE

CITY           SKY/WX    TMP DP  RH WIND       PRES   REMARKS
NASHVILLE      CLEAR     50  44  80 S6        30.23S
PORTLAND       CLEAR     52  45  76 CALM      30.22S HAZE
CLARKSVILLE    PTCLDY    46  44  93 SE3       30.22S FOG
SMYRNA         CLEAR     46  45  96 CALM      30.25S
COOKEVILLE     CLEAR     41  39  93 CALM      30.25R
GALLATIN       CLEAR     46  45  93 CALM      30.26S
CROSSVILLE     CLEAR     45  43  93 CALM      30.28R
$$

TNZ061-075-076-078-094-096-097-190700-
SOUTH MIDDLE TENNESSEE

CITY           SKY/WX    TMP DP  RH WIND       PRES   REMARKS
FAYETTEVILLE   CLEAR     50  46  87 CALM      30.24S
TULLAHOMA        N/A     45  43  93 CALM      30.26S
WINCHESTER     CLEAR     46  45  93 CALM        N/A
COLUMBIA       CLEAR     46  45  93 CALM      30.22S
SHELBYVILLE    CLEAR     46  46 100 E5        30.24F
$$

TNZ017-018-042-046-047-190700-
NORTHEAST TENNESSEE

CITY           SKY/WX    TMP DP  RH WIND       PRES   REMARKS
TRI CITIES     PTCLDY    43  43 100 CALM      30.29S
ELIZABETHTON   CLEAR     48  39  71 NE3       30.30S
$$

TNZ012-013-036-069-073-074-190700-
CENTRAL EAST TENNESSEE

CITY           SKY/WX    TMP DP  RH WIND       PRES   REMARKS
KNOXVILLE      CLEAR     49  49 100 E3        30.26S
OAK RIDGE      CLEAR     47  47 100 CALM      30.29S
DOWNTOWN KNOXV FOG       48  48 100 CALM      30.28S VSB 0
GATLINBURG     CLEAR     46  45  93 CALM      30.27S
MORRISTOWN     CLEAR     48  45  87 CALM      30.27S
JACKSBORO      FOG       43  43 100 CALM      30.31S VSB 0
$$

TNZ083-085-099-190700-
SOUTHEAST TENNESSEE

CITY           SKY/WX    TMP DP  RH WIND       PRES   REMARKS
CHATTANOOGA    CLEAR     50  47  89 CALM      30.28S
DAYTON         FOG       46  45  93 CALM      30.27S VSB 0
$$

SKY/WX REPORTED AS FAIR MEANS FEW OR NO CLOUDS BELOW
12 THOUSAND FEET.





USA.gov is the U.S. government's official web portal to all federal, state and local government web resources and services.